Location: Casilda
(33.0440°S, 61.1680°W)
Time: 09:43:20
(UTC-03:00)

ISS - Pass Details

Date: 20 October 2018
Orbit: 401 x 408 km, 51.6° (Epoch: 17 December)

Event Time Altitude Azimuth Distance (km) Brightness Sun altitude
Rises 19:56:06 0° 335° (NNW) 2,325 0.1 -7.8°
Reaches altitude 10° 19:58:18 10° 346° (NNW) 1,470 -1.0 -8.3°
Maximum altitude 20:01:15 31° 50° (NE) 755 -3.0 -8.9°
Drops below altitude 10° 20:04:14 10° 113° (ESE) 1,482 -1.4 -9.4°
Enters shadow 20:05:19 - 120° (ESE) 1,894 -0.8 -9.7°
